Location: Camerons Lookout
(40.9833°S, 175.9333°E)
Time: 20:30:37
(UTC+00:00)

Cosmos 1980 Rocket - Pass Details

Date: 14 January 2026
Orbit: 829 x 848 km, 71.0° (Epoch: 17 February)

Event Time Altitude Azimuth Distance (km) Brightness Sun altitude
Exits shadow 10:02:04 15° 92° (E) 2,141 4.0 -19.4°
Drops below altitude 10° 10:04:31 10° 117° (ESE) 2,494 4.6 -19.7°
Sets 10:08:00 0° 138° (SE) 3,441 5.6 -20.1°
